Tracking 19562 objects as of 25-Mar-2019
HD Live streaming from Space Station
objects crossing your sky now

LEMUR 2 NATALIEMURRAY

Track LEMUR 2 NATALIEMURRAY now!
10-day predictions
LEMUR 2 NATALIEMURRAY is classified as:


NORAD ID: 43887
Int'l Code: 2018-111M
Perigee: 576.6 km
Apogee: 591.7 km
Inclination: 97.7 °
Period: 96.2 minutes
Semi major axis: 6955 km
RCS: Unknown
Launch date: December 27, 2018
Source: United States (US)
Launch site: VOSTOCHNY COSMODROME (VOSTO)
aabbcc
Your satellite tracking list
Your tracking list is empty




NASA's NSSDC Master Catalog

Two Line Element Set (TLE):
1 43887U 18111M   19083.72847888 +.00000141 +00000-0 +17450-4 0  9992
2 43887 097.7260 353.0964 0010829 315.3644 044.6705 14.96728555013090
Source of the keplerian elements: AFSPC